sat.trackr.live / text

‹ back to catalog

STARLINK-31492

NORAD 59212 · 2024-046M

PAYLOAD ACTIVE UNKNOWN

§ Identity

Operator
Country
US
Launch date
2024-03-11
Launch site
AFWTR
Launch vehicle
Mass (kg)
RCS (m²)

Purposes: comms

External: N2YO · Heavens-Above · Gunter

§ Orbital elements

Epoch: 2026-09-20T21:46:21.444960Z

Period
93.85 min
Inclination
53.1599°
Eccentricity
0.0001225
Mean motion
15.34393300 rev/d
Perigee alt
461.9 km
Apogee alt
463.6 km
Semi-major
6,840.9 km
B*
3.4344e-5
RAAN
327.4784°
Arg perigee
84.7369°
Mean anomaly
275.3773°
Rev number
14,294

§ Raw data

STARLINK-314921 59212U 24046M   26263.90719265  .00000784  00000+0  34344-4 0  99932 59212  53.1599 327.4784 0001225  84.7369 275.3773 15.34393300142940

JSON: /api/v1/satellites/59212 · /tle

For live sub-satellite position, see the globe view (requires WebGL).

§ Visibility from observer

Set your observer location to see the next 7 days of passes ≥ 10°. The values pass through the URL so the page stays shareable.

No JS? Fill the form by hand. The geolocation button needs JavaScript.